STARLINK-3867 (52587 NORAD) Tracking and Keplerian Element Data
This shows tracking and keplerian element data for the satellite.
Feedback or suggestion? Click here.
Element | Value |
Catalog | 52587 |
Name | STARLINK-3867 |
Epoch Orbit | 981 |
Epoch Day | 192.91667824 |
Epoch Year | 2022 |
RAAN | 2.4712 |
Inclination | 53.2174 |
Eccentricity | 0.0001411 |
Argument of Perigee | 43.7692 |
Mean Anonmoly | 4.2113 |
Mean Motion | 15.4928174 |
Decay Rate | -0.0105524 |
L1 | 1 52587U 22051BD 22192.91667824 -.01055240 00000+0 -20912-1 0 9999 |
L2 | 2 52587 53.2174 2.4712 0001411 43.7692 4.2113 15.49281740 9815 |
Live tracking and technical data element details for STARLINK-3867 (NORAD 52587). STARLINK-3867 can be tracked NOW for your location showing map with azimuth and elevation plus other details from your city location.
Track the satellite on the map from your city or location and see movement details for azimuth, elevation, latitude, longitude, range, height, and movement on the map or in text.
IsCatalogInMostPopularTable: catalog: 52587, numindb: 8
Update: records affected: 1
GetName: 52587 STARLINK-3867
Hit Count: updated at: Sun, 14 Aug 2022 01:25:47 GMT